Showing default

CHUBUSAT 3, 41339

Orbit data source: Space-Track

CHUBUSAT 3, 41339 is a Japanese payload satellite in LEO that was launched on Wed, 17 Feb 2016 UTC via an H-IIA 202 launch vehicle from the Tanegashima Space Center (TNSTA). Payload-class satellites include a variety of spacecraft equipped with specific instruments for various scientific and technological missions. These include communications satellites like Starlink; space stations such as the ISS; scientific satellites like the Hubble; Earth observation satellites from companies like Planet Labs, Umbra, and HawkEye 360; GPS; miniature CubeSats for education and research; and military/defense satellites.

Loading next visibility...
Identifier
41339, 2016-012C
Orbit
LEO
Country
Flag of JPJP / JPN
Related business
Manufacturer
NAG/MHIME
Mission
Non-operational Amateur Imaging
Bus & Motor
Unknown
Mass
52 kg wet, 52 kg dry
Launch date (UTC)
2016-02-17 (10 years ago)
Launch vehicle
H-IIA 202
Launch site
Tanegashima Space Center (TNSTA)
Object type
Payload
Rocket body
Debris
Shape & HBR
Box, 0.3 m
Radar Cross Section
0.480 m², Medium (>0.1 m² and < 1m²)

Expand to show TLE details & history
Last TLE update: 19 hours ago

TLE from 19 hours ago
0 CHUBUSAT 3
1 41339U 16012C   26123.76591258  .00005972  00000-0  27933-3 0  9997
2 41339  31.0052 261.3372 0009067 333.7214  26.2966 15.18199068561441
Epoch: 2026-05-03T18:22Z
TLE epoch observation values (Epoch: 2026-05-03T18:22:54.846Z)
Latitude
-0.00002°
Longitude
123.94389°
Altitude
504.19 km
Speed
7.618 km/s
True Right ascension
17h 25m 20s
True Declination
0° 00' 00"
Sunlit
Object was in full shadow at epoch
Visualization orbit readout
Latitude
Unknown
Longitude
Unknown
Altitude
Unknown
Speed
Unknown
Apparent Right ascension
Unknown
Apparent Declination
Unknown
Sunlit
N/A
Visualization observer readout
Local Sidereal Time
21:19:05
Azimuth
Unknown
Elevation
Unknown
Doppler factor
Unknown
Orbital elements
Apogee altitude
521.388 km
Perigee altitude
508.887 km
Semi-major axis
6,893.275 km
Eccentricity
0.00091
Inclination
31.0052°
RAAN
261.3372°
Arg. of periapsis
333.7214°
True anomaly
26.34268°
Mean anomaly
26.2966°
Eccentric anomaly
26.31963°
Mean motion
3.79232 °/min
Orbital period
94.93 mins
BSTAR
0.00027933
Loading maneuver chart data...
Computing Atmospheric mass density...
Loading historical data...
Loading historical data...
Loading historical data...
Loading historical data...
Loading historical data...
Loading historical data...
Loading historical data...

Documentation

Showing up to 5 results
|